{"data":{"norad_id":47385,"epoch":"2026-09-19T11:47:35.907648Z","epoch_age_seconds":113124,"freshness":"FRESH","line1":"1 47385U 21005AN  26262.49138782  .00000247  00000+0  19735-4 0  9996","line2":"2 47385  53.1608 215.1725 0001271  85.4951 274.6195 15.31700761313077","mean_motion":15.31700761,"eccentricity":0.0001271,"inclination_deg":53.1608,"raan_deg":215.1725,"arg_perigee_deg":85.4951,"mean_anomaly_deg":274.6195,"bstar":1.9735e-5,"rev_number":31307,"period_min":94.013141252203,"perigee_km":469.86723474742,"apogee_km":471.60821870295,"semimajor_km":6848.8747267252,"source":"CELESTRAK","updated_at":"2026-09-20T09:00:38.593699Z"}}